Regional Weather Roundup
Issued by NWS

Home | Current Version | Previous Version | Text Only | Print | Product List | Glossary Off
Versions: 1 2 3 4 5 6 7 8 9 10 11 12 13 14 15 16 17 18 19 20 21 22 23 24 25 26 27 28 29 30 31 32 33 34 35 36 37 38 39 40 41 42 43 44 45 46 47 48 49 50

038
ASUS43 KLMK 280010
RWRKY
KENTUCKY REGIONAL WEATHER ROUNDUP
NATIONAL WEATHER SERVICE LOUISVILLE KY
800 PM EDT TUE JUN 27 2017

NOTE "FAIR" INDICATES FEW OR NO CLOUDS BELOW 12,000 FEET
WITH NO SIGNIFICANT WEATHER AND/OR OBSTRUCTIONS TO VISIBILITY.

KYZ001>023-026-027-061>063-070>075-280100-
WESTERN AND SOUTH CENTRAL KENTUCKY

CITY           SKY/WX    TMP DP  RH WIND       PRES   REMARKS
PADUCAH        SUNNY     79  54  41 SE3       30.04F
HENDERSON      SUNNY     77  50  38 CALM      30.07S
OWENSBORO      SUNNY     77  51  40 CALM      30.07S
HOPKINSVILLE   PTSUNNY   78  53  41 NE3       30.05F
BOWLING GREEN  SUNNY     78  52  40 N3        30.07S
GLASGOW        SUNNY     76  51  42 CALM      30.08S
$$

KYZ024-025-028>034-038-045-046-053-280100-
NORTH CENTRAL KENTUCKY

CITY           SKY/WX    TMP DP  RH WIND       PRES   REMARKS
LOUISVILLE/SDF SUNNY     78  45  30 N5        30.07F
LOUISVILLE/LOU SUNNY     78  43  28 NW5       30.08F
FORT KNOX      SUNNY     74  48  40 CALM      30.07S
$$

KYZ035>037-039>044-047>052-055>060-089>105-280100-
NORTHEAST KENTUCKY

CITY           SKY/WX    TMP DP  RH WIND       PRES   REMARKS
LEXINGTON      SUNNY     74  44  34 N3        30.11S
COVINGTON      MOSUNNY   72  48  42 N3        30.10S
FRANKFORT      SUNNY     74  45  35 NW3       30.09S
$$

KYZ054-064>069-076>088-106>120-280100-
SOUTHEAST KENTUCKY

CITY           SKY/WX    TMP DP  RH WIND       PRES   REMARKS
JACKSON        CLEAR     71  49  45 CALM      30.11F
LONDON         CLEAR     74  47  38 NW6       30.10S
SOMERSET       SUNNY     72  45  37 W3        30.10F
MIDDLESBORO    CLEAR     74  53  48 CALM      30.11R
MONTICELLO     CLEAR     73  56  54 N13       30.11F
$$





USA.gov is the U.S. government's official web portal to all federal, state and local government web resources and services.